When you browse on this site, cookies collect data to enhance your experience and personalize the content and advertising you see.
Visit our Privacy Policy to learn more. By continuing to use the site, you agree to this use of cookies and data.
  • En España
  • Lista de países
  • Para 7 días
  • Temperatura del agua
  • El tiempo en el mapa
  • Informadores
  • user-avatar
    Iniciar sesión

    Tiempo cada hora Erandio

    Hoy, 24 Febrero, Lunes

    Tiempo Temperatura Precipitaciones Viento Presión Humedad
    00:00 +12°C° 0 mm 1 mps 773 mmHg 64%
    01:00 +11°C° 0 mm 1 mps 772 mmHg 63%
    02:00 +11°C° 0 mm 1 mps 772 mmHg 62%
    03:00 +10°C° 0 mm 2 mps 771 mmHg 60%
    04:00 +10°C° 0 mm 2 mps 771 mmHg 60%
    05:00 +10°C° 0 mm 2 mps 771 mmHg 61%
    06:00 +10°C° 0 mm 2 mps 770 mmHg 61%
    07:00 +12°C° 0 mm 1 mps 770 mmHg 58%
    08:00 +14°C° 0 mm 1 mps 770 mmHg 55%
    09:00 +15°C° 0 mm 1 mps 769 mmHg 52%
    10:00 +19°C° 0 mm 1 mps 769 mmHg 46%
    11:00 +21°C° 0 mm 1 mps 769 mmHg 40%
    12:00 +24°C° 0 mm 1 mps 768 mmHg 34%
    13:00 +23°C° 0 mm 2 mps 768 mmHg 37%
    14:00 +21°C° 0 mm 2 mps 767 mmHg 40%
    15:00 +21°C° 0 mm 3 mps 766 mmHg 43%
    16:00 +18°C° 0 mm 3 mps 766 mmHg 54%
    17:00 +16°C° 0 mm 2 mps 766 mmHg 65%
    18:00 +14°C° 0 mm 2 mps 766 mmHg 76%
    19:00 +13°C° 0 mm 2 mps 766 mmHg 80%
    20:00 +12°C° 0 mm 2 mps 766 mmHg 85%
    21:00 +10°C° 0 mm 2 mps 766 mmHg 89%
    22:00 +10°C° 0 mm 2 mps 766 mmHg 89%
    23:00 +10°C° 0 mm 2 mps 766 mmHg 88%

    Mañana, 25 Febrero, Martes

    Tiempo Temperatura Precipitaciones Viento Presión Humedad
    00:00 +11°C° 0 mm 1 mps 766 mmHg 88%
    01:00 +11°C° 0 mm 1 mps 765 mmHg 86%
    02:00 +11°C° 0 mm 1 mps 764 mmHg 84%
    03:00 +10°C° 0 mm 2 mps 764 mmHg 82%
    04:00 +10°C° 0 mm 2 mps 764 mmHg 83%
    05:00 +10°C° 0 mm 2 mps 764 mmHg 85%
    06:00 +10°C° 0 mm 2 mps 764 mmHg 87%
    07:00 +10°C° 0 mm 2 mps 764 mmHg 84%
    08:00 +12°C° 0 mm 2 mps 763 mmHg 81%
    09:00 +12°C° 0 mm 3 mps 763 mmHg 78%
    10:00 +12°C° 0.4 mm 3 mps 763 mmHg 79%
    11:00 +12°C° 0.4 mm 3 mps 764 mmHg 80%
    12:00 +12°C° 0.4 mm 3 mps 764 mmHg 81%
    13:00 +12°C° 0.3 mm 4 mps 763 mmHg 83%
    14:00 +12°C° 0.3 mm 5 mps 763 mmHg 85%
    15:00 +11°C° 0.3 mm 6 mps 763 mmHg 86%
    16:00 +11°C° 0.1 mm 6 mps 763 mmHg 87%
    17:00 +10°C° 0.1 mm 5 mps 764 mmHg 88%
    18:00 +9°C° 0.1 mm 5 mps 764 mmHg 88%
    19:00 +9°C° 0.1 mm 5 mps 764 mmHg 88%
    20:00 +9°C° 0.1 mm 5 mps 765 mmHg 87%
    21:00 +8°C° 0.1 mm 5 mps 765 mmHg 87%
    22:00 +8°C° 0.1 mm 6 mps 765 mmHg 86%
    23:00 +8°C° 0.1 mm 6 mps 765 mmHg 85%

    Pasado mañana, 26 Febrero, Miércoles

    Tiempo Temperatura Precipitaciones Viento Presión Humedad
    00:00 +8°C° 0.1 mm 7 mps 765 mmHg 84%
    01:00 +8°C° 0.1 mm 7 mps 765 mmHg 83%
    02:00 +8°C° 0.1 mm 7 mps 765 mmHg 83%
    03:00 +8°C° 0.1 mm 7 mps 765 mmHg 82%
    04:00 +8°C° 0.3 mm 7 mps 765 mmHg 84%
    05:00 +8°C° 0.3 mm 7 mps 765 mmHg 86%
    06:00 +8°C° 0.3 mm 7 mps 765 mmHg 88%
    07:00 +8°C° 0.3 mm 7 mps 766 mmHg 86%
    08:00 +8°C° 0.3 mm 7 mps 766 mmHg 84%
    09:00 +8°C° 0.3 mm 7 mps 766 mmHg 82%
    10:00 +8°C° 0.2 mm 6 mps 767 mmHg 81%
    11:00 +8°C° 0.2 mm 6 mps 767 mmHg 80%
    12:00 +8°C° 0.2 mm 6 mps 767 mmHg 78%
    13:00 +8°C° 0.2 mm 6 mps 767 mmHg 79%
    14:00 +8°C° 0.2 mm 5 mps 767 mmHg 79%
    15:00 +8°C° 0.2 mm 5 mps 767 mmHg 80%
    16:00 +8°C° 0.1 mm 5 mps 767 mmHg 82%
    17:00 +7°C° 0.1 mm 4 mps 767 mmHg 84%
    18:00 +7°C° 0.1 mm 4 mps 767 mmHg 86%
    19:00 +7°C° 0.1 mm 4 mps 767 mmHg 87%
    20:00 +7°C° 0.1 mm 3 mps 767 mmHg 88%
    21:00 +7°C° 0.1 mm 3 mps 768 mmHg 89%
    22:00 +7°C° 0.1 mm 3 mps 767 mmHg 89%
    23:00 +7°C° 0.1 mm 3 mps 767 mmHg 89%

    27 Febrero, Jueves

    Tiempo Temperatura Precipitaciones Viento Presión Humedad
    00:00 +7°C° 0.1 mm 3 mps 767 mmHg 89%
    01:00 +5°C° 0 mm 3 mps 766 mmHg 89%
    02:00 +5°C° 0 mm 3 mps 766 mmHg 90%
    03:00 +4°C° 0 mm 3 mps 766 mmHg 90%
    04:00 +4°C° 0 mm 3 mps 765 mmHg 89%
    05:00 +4°C° 0 mm 3 mps 765 mmHg 88%
    06:00 +4°C° 0 mm 4 mps 765 mmHg 87%
    07:00 +6°C° 0 mm 4 mps 765 mmHg 83%
    08:00 +7°C° 0 mm 4 mps 765 mmHg 79%
    09:00 +8°C° 0 mm 4 mps 765 mmHg 74%
    10:00 +11°C° 0 mm 3 mps 765 mmHg 68%
    11:00 +13°C° 0 mm 3 mps 764 mmHg 61%
    12:00 +16°C° 0 mm 3 mps 764 mmHg 54%
    13:00 +17°C° 0 mm 3 mps 764 mmHg 50%
    14:00 +18°C° 0 mm 3 mps 763 mmHg 46%
    15:00 +19°C° 0 mm 3 mps 763 mmHg 42%
    16:00 +17°C° 0 mm 2 mps 763 mmHg 50%
    17:00 +16°C° 0 mm 2 mps 763 mmHg 58%
    18:00 +14°C° 0 mm 2 mps 763 mmHg 66%
    19:00 +13°C° 0 mm 2 mps 764 mmHg 68%
    20:00 +12°C° 0 mm 2 mps 764 mmHg 70%
    21:00 +10°C° 0 mm 2 mps 765 mmHg 72%
    22:00 +10°C° 0 mm 2 mps 765 mmHg 73%
    23:00 +10°C° 0 mm 2 mps 765 mmHg 74%

    28 Febrero, Viernes

    Tiempo Temperatura Precipitaciones Viento Presión Humedad
    00:00 +9°C° 0 mm 2 mps 765 mmHg 75%
    01:00 +9°C° 0 mm 2 mps 764 mmHg 74%
    02:00 +9°C° 0 mm 2 mps 764 mmHg 74%
    03:00 +9°C° 0 mm 2 mps 764 mmHg 73%
    04:00 +9°C° 0 mm 2 mps 764 mmHg 73%
    05:00 +9°C° 0 mm 2 mps 764 mmHg 73%
    06:00 +9°C° 0 mm 2 mps 763 mmHg 74%
    07:00 +10°C° 0 mm 2 mps 763 mmHg 71%
    08:00 +12°C° 0 mm 2 mps 763 mmHg 69%
    09:00 +13°C° 0 mm 2 mps 763 mmHg 66%
    10:00 +15°C° 0 mm 2 mps 762 mmHg 58%
    11:00 +17°C° 0 mm 3 mps 761 mmHg 50%
    12:00 +19°C° 0 mm 3 mps 761 mmHg 41%
    13:00 +20°C° 0 mm 3 mps 760 mmHg 40%
    14:00 +20°C° 0 mm 3 mps 759 mmHg 38%
    15:00 +20°C° 0 mm 3 mps 759 mmHg 37%
    16:00 +19°C° 0 mm 3 mps 759 mmHg 44%
    17:00 +17°C° 0 mm 2 mps 759 mmHg 51%
    18:00 +15°C° 0 mm 1 mps 759 mmHg 58%
    19:00 +14°C° 0 mm 1 mps 759 mmHg 59%
    20:00 +14°C° 0 mm 2 mps 759 mmHg 59%
    21:00 +13°C° 0 mm 2 mps 760 mmHg 59%
    22:00 +13°C° 0 mm 2 mps 760 mmHg 59%
    23:00 +12°C° 0 mm 2 mps 760 mmHg 59%

    29 Febrero, Sábado

    Tiempo Temperatura Precipitaciones Viento Presión Humedad
    00:00 +12°C° 0 mm 2 mps 760 mmHg 60%
    01:00 +12°C° 0 mm 2 mps 760 mmHg 62%
    02:00 +11°C° 0 mm 3 mps 760 mmHg 65%
    03:00 +11°C° 0 mm 3 mps 760 mmHg 68%
    04:00 +10°C° 0.3 mm 3 mps 760 mmHg 71%
    05:00 +10°C° 0.3 mm 3 mps 760 mmHg 75%
    06:00 +10°C° 0.3 mm 3 mps 760 mmHg 78%
    07:00 +11°C° 0.4 mm 3 mps 760 mmHg 77%
    08:00 +12°C° 0.4 mm 2 mps 760 mmHg 76%
    09:00 +13°C° 0.4 mm 2 mps 760 mmHg 75%
    10:00 +15°C° 0 mm 2 mps 760 mmHg 69%
    11:00 +16°C° 0 mm 2 mps 759 mmHg 63%
    12:00 +18°C° 0 mm 2 mps 759 mmHg 58%
    13:00 +18°C° 0 mm 2 mps 758 mmHg 55%
    14:00 +19°C° 0 mm 3 mps 757 mmHg 53%
    15:00 +19°C° 0 mm 3 mps 756 mmHg 51%
    16:00 +19°C° 0 mm 3 mps 755 mmHg 52%
    17:00 +18°C° 0 mm 3 mps 755 mmHg 54%
    18:00 +17°C° 0 mm 4 mps 754 mmHg 56%
    19:00 +17°C° 0.1 mm 4 mps 754 mmHg 62%
    20:00 +16°C° 0.1 mm 3 mps 754 mmHg 67%
    21:00 +16°C° 0.1 mm 3 mps 754 mmHg 73%
    22:00 +15°C° 0.3 mm 4 mps 753 mmHg 76%
    23:00 +14°C° 0.3 mm 4 mps 753 mmHg 79%
    Mostrar más